Temperature
18 18 18 18 18 18 18 18 18 18 18 18 18 18 18 18 18 18 18 18 18 18 18 17 17 17 17 17 17 17 16 16 16 16 16 16 16 16 16 16 16 16 16
18 18 18 18 18 18 18 18 18 18 18 18 18 18 18 18 18 18 18 18 18 17 17 17 17 17 17 17 17 17 17 17 16 16 16 16 16 16 16 16 16 16 16
18 18 18 18 18 18 18 18 18 18 18 18 18 18 18 18 18 18 18 18 18 17 17 17 17 17 17 17 17 17 17 17 17 16 16 16 16 16 16 16 16 16 16
18 18 18 18 18 18 18 18 18 18 18 18 18 18 18 18 18 18 18 18 17 17 17 17 17 17 17 17 17 17 17 17 17 17 16 16 16 16 16 16 16 16 16
18 18 18 18 18 18 18 18 18 18 18 18 18 18 18 18 18 18 18 18 18 18 17 17 17 17 17 17 17 17 17 17 17 17 17 16 16 16 16 16 16 16 16
19 18 18 18 18 18 18 18 18 18 18 18 18 18 18 18 18 18 18 18 18 18 17 17 17 17 17 17 17 17 17 17 17 17 17 16 16 16 16 16 16 16 16
19 19 18 18 18 18 18 18 18 18 18 18 18 18 18 18 18 18 18 18 18 18 18 17 17 17 17 17 17 17 17 17 17 17 17 17 16 16 16 16 16 16 16
19 19 18 18 18 18 18 18 18 18 18 18 18 18 18 18 18 18 18 18 18 18 18 18 18 18 18 17 17 17 17 17 17 17 17 17 17 16 16 16 16 16 16
19 19 19 18 18 18 18 18 18 18 18 18 18 18 18 18 18 18 18 18 18 18 18 18 18 18 18 18 17 17 17 17 17 17 17 17 17 17 16 16 16 16 16
19 19 19 19 18 18 18 18 18 18 18 18 18 18 18 18 18 18 18 18 18 18 18 18 18 18 18 18 18 17 17 17 17 17 17 17 17 16 16 16 16 16 16
19 19 19 19 19 18 18 18 18 18 18 18 18 18 18 18 18 17 18 18 18 18 18 18 18 18 18 18 18 18 17 17 17 17 17 17 17 17 16 16 16 16 16
19 19 19 18 18 18 18 18 18 18 18 18 18 18 18 18 18 18 18 18 18 18 18 18 18 18 18 18 18 18 17 17 17 17 17 17 17 17 16 16 16 16 16
19 19 19 19 18 18 18 18 18 18 18 18 18 18 17 17 17 17 17 17 17 18 18 18 18 18 18 18 18 17 17 17 17 17 17 17 16 16 16 16 16 16 16
19 19 19 19 18 18 18 18 18 18 18 18 18 18 17 17 17 17 17 17 17 17 18 18 18 18 18 18 18 17 17 17 17 17 17 17 16 16 16 16 16 16 16
19 19 18 18 18 18 18 18 18 18 18 18 18 17 17 17 17 17 17 17 17 17 17 17 17 17 17 17 17 17 17 17 17 17 16 16 16 16 16 16 16 16 16
18 18 18 18 18 18 18 18 18 18 17 17 17 17 17 17 17 17 17 17 17 17 16 17 17 17 17 17 17 17 17 17 16 16 16 16 16 16 16 16 16 15 15
19 18 18 18 18 18 18 18 17 17 17 17 17 17 17 17 17 17 17 17 17 16 16 17 16 16 16 16 16 16 16 16 16 16 16 16 16 16 16 15 15 15 15
18 18 18 18 18 17 17 17 17 17 17 17 17 17 17 17 17 16 16 16 16 16 16 16 16 16 16 16 16 16 16 16 16 16 16 15 15 15 15 15 15 15 15
18 18 17 17 17 17 17 17 17 17 17 17 17 17 16 16 16 16 16 16 16 16 16 16 15 15 15 15 15 15 15 15 15 15 15 15 15 15 15 15 15 15 14
18 17 17 17 17 17 17 17 17 17 16 16 16 16 16 16 16 16 16 16 15 15 15 15 15 15 15 15 15 15 15 15 15 14 14 14 14 14 14 14 14 14 14
17 17 17 17 16 16 16 16 16 16 16 16 16 15 15 15 15 15 15 15 15 15 14 14 14 14 14 14 14 14 14 14 14 14 14 14 14 14 14 14 13 13 13
17 16 16 16 16 16 16 16 16 16 16 15 15 15 15 15 15 15 14 14 14 14 14 14 13 13 13 13 13 13 13 13 13 13 13 13 13 13 13 13 13 13 13
16 16 16 16 16 15 15 15 15 15 15 15 15 14 14 14 14 14 14 14 14 13 13 13 13 12 12 12 12 13 12 12 12 12 12 12 12 12 12 12 12 12 12
16 16 15 15 15 15 15 15 15 15 15 14 14 14 14 13 13 13 13 13 13 13 12 12 12 12 12 12 12 12 12 12 11 11 11 11 11 11 11 11 11 11 11
15 15 15 15 15 14 14 14 14 14 14 14 13 13 13 13 13 13 13 13 12 12 11 11 11 11 11 11 11 11 11 11 11 11 10 10 10 11 11 10 10 10 10
15 15 15 14 14 14 14 14 14 14 13 13 13 13 12 12 12 12 12 12 12 11 11 11 11 11 11 10 10 10 10 10 10 10 9 9 9 10 10 10 9 9 9
Wind_Speed
4 4 3 4 4 4 4 3 2 2 1 2 4 6 7 8 10 11 12 15 15 14 14 14 13 13 12 12 12 11 11 11 11 11 11 11 10 10 10 10 10 10 9
7 5 4 3 4 5 5 5 3 2 1 2 3 5 7 8 9 10 11 13 15 15 14 14 14 14 13 13 13 13 12 12 12 12 12 12 11 11 11 11 10 10 10
9 6 4 3 4 5 5 3 1 1 1 1 1 3 5 7 9 10 12 12 13 15 15 15 15 15 14 14 14 14 13 13 13 13 13 13 13 12 12 12 12 12 11
10 7 4 3 5 4 3 2 1 1 0 0 1 1 2 5 8 10 11 12 13 13 15 16 16 16 16 16 15 15 15 15 15 15 14 14 14 14 14 13 13 13 13
10 7 4 4 5 3 2 2 1 2 1 1 2 2 2 3 5 8 9 12 14 14 14 16 18 18 18 17 17 17 17 16 16 16 16 16 16 15 15 15 15 15 15
10 8 5 5 5 2 2 1 1 1 2 2 2 2 2 3 4 5 7 10 13 14 15 15 16 17 19 19 18 18 18 18 18 18 18 18 18 17 18 17 17 17 17
10 8 4 4 4 3 4 3 2 2 1 1 1 2 3 3 5 5 6 6 8 12 14 16 16 15 15 19 20 20 20 20 20 20 20 20 19 19 19 19 19 19 18
8 8 5 4 4 3 4 3 3 2 2 2 2 1 3 4 3 4 4 6 7 8 10 15 16 16 16 15 18 22 21 21 22 21 21 21 21 20 20 20 20 20 20
8 7 7 5 4 4 4 4 4 4 3 2 3 4 2 3 4 3 4 5 6 6 6 9 14 16 17 16 17 19 22 22 21 21 22 22 22 22 22 22 21 21 20
8 8 7 6 5 4 4 5 4 3 4 3 2 3 4 4 2 3 4 3 5 6 6 7 9 13 16 16 17 18 21 23 23 23 23 22 22 23 23 23 22 21 21
6 6 7 5 5 4 5 5 4 4 4 4 3 2 2 2 3 3 4 4 3 4 6 6 7 9 14 15 16 18 21 22 24 24 23 23 23 23 23 23 23 22 21
4 5 5 5 5 4 5 5 5 5 4 4 4 3 3 3 3 4 5 5 5 5 4 4 5 7 11 14 16 18 20 21 23 23 23 23 22 22 22 21 21 21 21
4 5 5 4 4 4 4 4 4 4 4 4 4 4 4 4 3 3 4 4 4 4 3 3 4 6 9 10 12 16 18 20 20 21 21 20 20 20 19 19 18 18 19
5 5 5 5 4 4 4 4 3 4 3 4 5 4 4 4 4 4 4 3 3 3 2 4 2 3 5 7 9 11 10 14 16 17 18 18 18 18 18 17 17 17 17
4 5 5 5 4 4 4 3 3 4 3 4 4 4 4 4 4 4 3 3 3 3 3 3 2 2 3 4 6 7 9 11 13 14 15 16 16 17 16 16 16 16 16
3 3 4 4 4 3 3 3 3 3 3 3 3 3 3 3 3 3 3 2 3 4 4 3 3 2 1 2 3 4 6 8 9 11 12 14 14 14 15 15 15 15 15
4 3 4 4 3 3 2 2 3 2 2 2 2 1 2 2 2 2 2 1 1 2 4 4 2 1 1 1 1 1 2 3 4 7 9 10 11 12 13 13 13 14 14
3 3 3 3 2 2 2 2 2 2 1 1 1 1 3 2 2 2 2 2 1 2 2 3 2 1 1 1 2 1 1 1 2 4 7 7 9 10 10 10 10 11 12
2 2 2 2 1 1 1 1 2 1 1 0 0 1 2 2 2 2 2 2 2 1 0 1 2 1 1 2 2 2 2 1 1 2 2 3 5 6 7 7 7 8 8
3 3 3 3 2 2 1 1 2 2 1 1 2 2 2 2 1 2 2 2 2 2 2 1 1 2 2 2 2 2 3 2 2 2 2 2 1 3 4 4 5 5 5
4 4 5 4 3 2 2 2 2 2 2 3 3 3 4 5 5 3 3 2 2 2 2 2 2 2 3 3 3 2 3 3 3 3 2 3 2 2 2 2 2 3 3
5 6 5 5 5 3 5 6 5 3 3 3 3 3 4 5 6 7 8 7 6 4 2 2 2 2 3 3 3 2 2 2 2 3 2 3 2 2 2 3 3 2 2
6 6 5 5 5 4 5 5 6 4 4 4 4 4 4 5 5 5 6 8 8 9 6 3 2 2 2 3 2 2 2 2 1 3 2 2 3 2 3 5 5 5 4
6 5 5 5 5 6 6 6 7 6 6 5 5 4 4 4 6 5 6 7 6 6 5 4 2 2 2 2 1 1 1 1 2 3 3 2 3 3 3 3 6 7 6
6 6 6 6 6 6 7 7 7 6 6 6 6 6 6 6 8 8 7 6 6 5 8 10 9 8 8 8 5 3 3 2 3 3 3 2 2 3 3 2 5 6 6
7 7 7 7 6 6 8 8 7 5 6 5 6 7 9 8 8 8 6 5 5 4 5 7 8 9 9 9 9 4 2 2 2 2 3 3 3 3 3 2 3 5 5
Wind_Direction
157 162 174 179 183 186 194 212 232 248 232 161 147 150 151 156 159 164 171 175 175 176 177 178 179 180 179 180 181 180 180 181 181 181 181 182 182 181 180 178 177 175 176
162 163 169 181 188 188 195 196 195 199 185 141 137 155 160 167 170 173 178 183 185 185 187 188 188 190 190 191 191 192 192 194 192 192 193 193 193 193 192 192 191 188 188
166 166 167 174 190 187 178 172 166 141 147 135 150 154 164 169 176 180 185 189 193 196 198 198 198 199 200 200 200 201 202 203 202 202 201 201 202 202 202 202 201 200 199
170 166 164 183 192 177 158 153 142 118 106 149 200 207 173 179 185 190 191 195 197 202 207 208 206 206 208 209 209 208 209 210 210 209 209 209 209 210 210 209 209 207 207
174 170 179 190 186 166 166 184 152 149 171 212 239 236 211 199 195 197 199 203 205 207 208 214 214 212 213 215 216 215 215 215 215 216 216 216 217 217 217 216 215 214 214
177 177 182 190 181 166 186 184 171 171 188 207 253 270 250 237 221 212 210 209 210 212 210 213 216 219 220 221 221 222 221 220 219 220 222 223 222 222 221 221 220 220 219
182 180 184 183 179 185 196 187 170 190 220 165 66 338 317 269 241 231 217 210 213 213 211 213 214 215 220 226 226 226 226 225 224 223 225 225 226 226 226 225 225 225 225
191 189 182 183 186 190 198 194 174 175 229 168 147 111 322 323 297 245 224 219 218 212 211 215 214 214 217 221 226 227 228 230 229 228 227 227 228 227 228 228 228 228 229
198 196 187 187 189 188 199 204 190 180 211 229 181 164 184 248 297 300 256 235 220 215 219 218 218 219 219 222 226 228 228 230 232 232 232 231 230 229 229 230 231 231 232
203 201 194 196 194 191 198 206 197 190 189 225 237 212 199 186 211 297 304 267 237 228 224 226 225 223 222 221 224 226 228 229 231 233 234 234 233 231 230 231 233 234 234
208 202 198 198 197 197 203 207 200 201 199 208 221 229 231 220 204 213 275 295 285 249 232 229 227 225 225 223 224 226 227 229 231 233 234 234 235 234 233 233 234 236 237
213 209 200 204 204 203 206 212 211 211 217 219 224 217 209 219 223 212 241 265 273 273 249 236 228 227 229 228 229 228 228 228 230 232 233 234 235 235 235 236 237 238 239
209 213 210 210 211 211 210 208 212 222 220 222 228 232 228 232 224 211 226 255 265 278 282 262 235 231 232 228 230 233 233 231 232 232 233 234 236 236 235 237 239 240 241
206 208 207 206 212 212 216 208 215 227 227 230 240 238 240 248 235 222 218 227 268 284 281 268 268 234 232 228 233 235 238 237 234 233 233 234 235 236 236 237 238 239 241
208 206 204 204 213 213 215 207 223 234 233 235 245 246 250 260 251 243 231 210 210 255 275 265 271 270 252 245 237 228 232 238 237 236 235 235 235 236 236 236 236 237 239
209 195 196 200 209 216 216 211 233 243 236 246 247 251 259 268 274 270 251 230 205 214 250 260 250 268 280 268 252 235 235 238 242 244 242 238 238 237 236 237 237 237 237
190 193 194 193 200 215 217 212 227 231 232 253 264 259 279 288 295 298 289 268 237 210 248 272 260 297 304 303 333 264 251 242 244 239 240 239 239 241 242 242 242 241 240
181 184 177 175 183 192 198 201 223 219 208 241 291 324 312 311 318 315 307 302 281 238 230 267 291 312 306 328 317 312 317 297 261 254 242 242 243 243 242 243 242 242 241
151 147 142 145 142 141 166 189 176 151 147 188 289 317 322 349 342 336 342 337 322 323 260 230 293 317 313 342 333 332 330 313 283 286 273 262 252 247 241 238 236 236 238
120 118 117 110 103 87 84 135 134 124 106 75 52 35 36 42 3 346 8 1 10 22 32 40 340 343 338 332 347 335 328 320 314 338 349 344 311 271 264 250 240 240 240
107 103 95 87 85 84 74 94 104 100 81 63 55 51 55 64 55 47 46 33 41 42 37 33 8 5 359 356 345 334 326 324 335 357 352 1 18 18 356 321 285 260 247
90 89 90 86 74 72 69 80 92 82 80 76 62 45 49 45 49 54 53 56 62 68 56 47 28 18 347 335 334 345 344 0 340 345 360 350 10 2 355 12 357 345 324
92 89 88 87 81 68 68 77 87 94 84 73 65 54 51 45 47 48 49 52 51 53 63 87 65 18 343 327 343 2 4 18 348 333 356 344 353 346 349 15 16 7 342
93 90 81 81 78 62 65 77 89 85 77 67 60 59 62 49 52 56 61 54 46 37 38 47 53 12 9 347 346 344 303 340 7 12 24 358 332 320 333 9 12 17 17
90 84 78 76 73 51 54 69 82 83 76 60 51 53 61 60 47 52 62 59 46 31 39 45 43 34 29 27 33 41 36 44 13 350 2 18 333 324 328 342 7 14 17
93 88 76 69 71 60 55 65 78 84 78 65 53 47 51 54 50 50 60 61 50 24 28 33 31 25 23 23 31 48 67 62 26 349 337 4 349 359 346 338 358 6 12
Height
1566 1567 1567 1568 1569 1569 1570 1571 1571 1572 1572 1572 1572 1573 1573 1573 1573 1574 1574 1574 1574 1575 1575 1575 1576 1577 1577 1578 1579 1579 1580 1581 1581 1582 1583 1584 1584 1585 1585 1586 1587 1587 1588
1567 1567 1568 1569 1569 1570 1571 1571 1571 1572 1572 1573 1573 1573 1573 1573 1574 1574 1574 1574 1574 1574 1575 1575 1576 1576 1577 1577 1578 1579 1579 1580 1581 1582 1582 1583 1584 1584 1585 1585 1586 1587 1587
1567 1568 1569 1569 1570 1570 1571 1571 1571 1572 1572 1573 1573 1573 1574 1574 1573 1573 1573 1574 1574 1574 1574 1575 1575 1576 1576 1577 1577 1578 1579 1579 1580 1581 1581 1582 1583 1583 1584 1584 1585 1586 1586
1567 1568 1568 1569 1570 1570 1571 1571 1571 1572 1572 1572 1573 1573 1573 1573 1573 1573 1573 1573 1573 1574 1574 1574 1574 1575 1575 1576 1576 1577 1577 1578 1579 1579 1580 1580 1581 1582 1582 1583 1584 1584 1585
1567 1568 1568 1569 1569 1570 1570 1571 1571 1572 1572 1572 1573 1573 1573 1573 1572 1572 1572 1572 1572 1573 1573 1573 1573 1573 1574 1574 1574 1575 1576 1576 1577 1577 1578 1579 1579 1580 1580 1581 1582 1582 1583
1566 1567 1568 1568 1569 1569 1570 1570 1571 1571 1571 1572 1572 1572 1572 1572 1571 1571 1571 1571 1571 1571 1571 1571 1571 1572 1572 1572 1572 1573 1574 1574 1575 1575 1576 1576 1577 1578 1578 1579 1579 1580 1580
1565 1566 1566 1567 1568 1568 1569 1569 1570 1570 1570 1571 1571 1571 1570 1570 1569 1569 1569 1569 1569 1569 1569 1569 1569 1569 1569 1570 1570 1571 1571 1572 1572 1572 1573 1573 1574 1575 1575 1576 1576 1577 1577
1564 1565 1565 1566 1567 1567 1568 1568 1568 1568 1569 1569 1569 1569 1568 1569 1567 1567 1567 1566 1566 1566 1566 1567 1567 1567 1567 1567 1567 1568 1568 1569 1569 1569 1570 1570 1571 1571 1572 1572 1573 1573 1574
1562 1563 1564 1564 1565 1565 1566 1566 1566 1567 1567 1567 1568 1568 1567 1566 1565 1564 1564 1564 1563 1564 1564 1564 1564 1564 1564 1564 1565 1565 1565 1565 1565 1566 1566 1566 1567 1567 1568 1568 1569 1570 1570
1560 1561 1562 1562 1563 1563 1563 1564 1564 1564 1565 1564 1565 1565 1566 1565 1564 1562 1562 1561 1561 1561 1561 1560 1560 1560 1560 1561 1561 1561 1561 1562 1562 1562 1562 1563 1563 1563 1564 1564 1565 1565 1566
1559 1559 1559 1560 1560 1560 1561 1561 1562 1562 1562 1562 1562 1562 1562 1562 1562 1561 1559 1558 1558 1558 1557 1557 1557 1556 1557 1557 1557 1557 1557 1558 1558 1558 1558 1559 1559 1559 1559 1560 1560 1561 1561
1556 1557 1557 1557 1558 1558 1558 1558 1559 1559 1559 1559 1559 1559 1559 1559 1558 1558 1557 1555 1555 1554 1554 1554 1553 1553 1553 1553 1553 1553 1553 1553 1553 1553 1554 1554 1554 1555 1555 1555 1555 1555 1556
1553 1554 1554 1554 1555 1555 1555 1555 1556 1556 1556 1556 1556 1556 1555 1555 1555 1555 1554 1552 1551 1550 1550 1549 1549 1549 1549 1549 1548 1548 1549 1549 1549 1549 1549 1549 1549 1550 1550 1550 1550 1550 1550
1550 1551 1551 1551 1552 1552 1552 1552 1552 1552 1552 1552 1552 1552 1552 1552 1552 1551 1551 1550 1548 1547 1546 1545 1545 1545 1545 1545 1544 1544 1544 1544 1544 1544 1544 1544 1544 1544 1545 1545 1545 1545 1545
1546 1547 1548 1548 1549 1549 1549 1549 1549 1549 1549 1549 1549 1549 1548 1548 1548 1547 1547 1546 1546 1544 1542 1542 1542 1542 1541 1541 1540 1539 1539 1539 1539 1539 1539 1539 1539 1539 1539 1539 1540 1539 1539
1543 1544 1545 1545 1546 1546 1546 1546 1546 1546 1546 1546 1546 1545 1545 1544 1544 1544 1543 1542 1542 1541 1539 1538 1538 1538 1537 1536 1536 1535 1535 1534 1534 1534 1534 1534 1534 1534 1534 1534 1534 1534 1534
1540 1541 1541 1542 1543 1544 1544 1544 1544 1544 1544 1543 1543 1542 1542 1542 1541 1540 1540 1539 1538 1537 1536 1535 1535 1534 1533 1533 1532 1531 1531 1530 1530 1529 1529 1529 1529 1529 1529 1529 1528 1528 1528
1538 1538 1538 1539 1540 1541 1542 1542 1541 1541 1541 1541 1540 1540 1539 1539 1538 1537 1536 1535 1535 1534 1533 1532 1531 1531 1530 1529 1528 1527 1527 1526 1526 1525 1525 1524 1524 1524 1524 1523 1523 1523 1522
1535 1536 1537 1537 1538 1539 1539 1539 1539 1539 1539 1538 1537 1537 1536 1536 1535 1534 1533 1532 1531 1531 1530 1529 1528 1527 1527 1526 1525 1524 1524 1523 1522 1521 1521 1520 1520 1520 1519 1519 1518 1518 1517
1534 1534 1535 1536 1537 1537 1538 1538 1537 1537 1536 1536 1535 1534 1533 1533 1532 1531 1530 1530 1529 1528 1527 1526 1525 1524 1524 1523 1522 1521 1520 1519 1518 1518 1517 1517 1516 1516 1515 1515 1514 1513 1513
1532 1533 1533 1534 1535 1536 1536 1536 1535 1535 1534 1533 1532 1532 1531 1531 1530 1530 1529 1528 1527 1526 1525 1524 1523 1522 1521 1520 1519 1518 1517 1516 1515 1515 1514 1513 1512 1511 1511 1510 1510 1509 1508
1531 1532 1532 1533 1534 1534 1534 1534 1534 1533 1533 1532 1531 1531 1531 1530 1529 1528 1527 1526 1525 1524 1523 1522 1521 1520 1519 1518 1517 1516 1515 1514 1512 1513 1511 1510 1509 1508 1508 1507 1506 1505 1504
1531 1532 1532 1533 1533 1533 1533 1533 1532 1532 1532 1531 1531 1530 1530 1529 1528 1527 1527 1526 1524 1524 1523 1522 1520 1519 1518 1517 1516 1514 1513 1512 1511 1510 1509 1507 1507 1506 1505 1504 1503 1502 1501
1531 1532 1532 1533 1533 1533 1533 1532 1532 1532 1531 1531 1531 1530 1530 1529 1528 1527 1526 1525 1524 1523 1522 1521 1520 1519 1518 1517 1515 1514 1513 1511 1510 1509 1508 1506 1505 1504 1503 1502 1501 1499 1498
1531 1532 1533 1533 1533 1533 1533 1533 1532 1531 1531 1531 1531 1531 1530 1529 1528 1527 1525 1524 1524 1523 1523 1522 1521 1519 1518 1517 1515 1513 1512 1510 1509 1508 1507 1506 1504 1502 1501 1500 1499 1498 1496
1532 1532 1533 1533 1534 1534 1534 1533 1533 1532 1531 1531 1531 1531 1530 1529 1528 1528 1527 1525 1524 1524 1523 1522 1521 1519 1518 1516 1515 1513 1511 1510 1509 1508 1507 1506 1504 1502 1500 1500 1498 1496 1495